Location: Home
(42.5358°N, 72.7383°W)
Time: 06:21:28
(UTC-05:00)

Explorer 11/Cluster Stage 4 - Pass Details

Date: 01 December 2021
Orbit: 467 x 1255 km, 28.8° (Epoch: 25 January)

Event Time Altitude Azimuth Distance (km) Brightness Sun altitude
Rises 07:36:57 0° 258° (WSW) 4,171 9.9 4.7°
Reaches altitude 10° 07:41:01 10° 241° (WSW) 3,224 9.5 5.3°
Maximum altitude 07:45:57 17° 203° (SSW) 2,671 9.5 6.0°
Drops below altitude 10° 07:50:46 10° 166° (SSE) 3,116 10.6 6.7°
Sets 07:54:37 0° 148° (SSE) 3,975 11.8 7.3°
